Location: Zihuatanejo
(17.6330°N, 101.5500°W)
Time: 05:39:40
(UTC-05:00)

Daily predictions for brighter satellites

Satellite Brightness Start Highest point End
(mag) Time Altitude Azimuth Time Altitude Azimuth Time Altitude Azimuth
Atlas Centaur 2 4.4 00:27:28 10° NW 00:31:50 31° NNW 00:31:50 31° NNW
CZ-2D R/B 4.4 03:42:08 10° NE 03:44:01 19° ENE 03:44:01 19° ENE
USA 229 DEB 4.5 04:07:20 45° N 04:07:20 45° N 04:12:05 10° NNE
USA 229 4.5 04:07:26 46° N 04:07:26 46° N 04:12:12 10° NNE
ATLAS 2A CENTAUR R/B 3.3 04:07:37 65° N 04:07:40 65° N 04:32:11 10° ENE
H-2A R/B 4.4 04:13:41 18° NNW 04:17:51 35° NNE 04:43:45 10° E
Resurs 1-4 Rocket 3.1 04:27:08 10° NNE 04:30:30 41° N 04:30:30 41° N
ARIANE 5 R/B 4.3 04:43:50 10° N 04:45:49 22° NNW 04:45:49 22° NNW
Cosmos 1937 Rocket 4.5 04:53:34 37° NNW 04:53:34 37° NNW 04:57:03 10° N
UNK 4.5 04:57:47 47° N 04:57:47 47° N 05:01:04 10° N
ASTRO E2 4.1 05:02:17 35° NNE 05:02:17 35° NNE 05:04:56 10° NE
Cosmos 2154 Rocket 3.9 05:02:06 69° SSW 05:02:54 82° W 05:09:16 10° N
Cosmos 389 Rocket 4.3 05:01:27 10° NNE 05:04:43 30° E 05:05:02 29° E
IRS-1C Rocket 4.0 05:01:52 10° N 05:06:58 72° WNW 05:06:58 72° WNW
Meteor 2-3 Rocket 4.3 05:12:20 41° WNW 05:12:20 41° WNW 05:17:03 10° N
Nadezhda 3 Rocket 4.5 05:05:56 10° N 05:11:57 58° E 05:18:00 10° SSE
ISS -0.4 05:10:08 10° N 05:12:26 18° NE 05:14:45 10° E
SL-24 DEB 4.5 05:14:00 10° N 05:17:54 54° NW 05:17:54 54° NW
SL-16 R/B 2.7 05:25:09 45° SW 05:26:10 50° WSW 05:32:11 10° NNW
CZ-2D R/B 3.6 05:22:21 10° NNW 05:25:21 21° WNW 05:25:21 21° WNW
GPS 2-04 Rocket1 3.7 05:29:33 29° NNW 05:29:33 29° NNW 05:32:16 10° NE
NOSS 3-1 (C) 3.7 05:28:44 40° W 05:29:39 43° WNW 05:35:19 10° N
Cosmos 1674 Rocket 4.2 05:28:55 10° N 05:33:08 53° E 05:37:22 10° SSE
Cosmos 2227 Rocket 2.2 05:31:48 45° SW 05:33:20 63° WNW 05:38:55 10° N
Meteor 2-13 Rocket 4.4 05:30:00 20° S 05:34:20 80° E 05:40:22 10° N
Maqsat-H 3.1 05:37:16 20° SSE 05:37:16 20° SSE 05:39:56 10° ESE
Okean O Rocket 2.5 05:33:01 10° NNW 05:36:29 31° WNW 05:36:29 31° WNW
Meteor 2-10 Rocket 3.6 05:36:16 10° N 05:41:26 79° E 05:46:49 10° S
Cosmos 2360 Rocket 2.5 05:36:50 10° NW 05:42:05 41° WSW 05:43:59 31° SSW
GP-B 3.0 05:43:11 10° N 05:47:38 88° E 05:51:08 16° S
Ariane H10 4.3 05:45:10 19° SSW 05:48:22 29° SSE 06:03:58 10° E
ADEOS II 3.0 05:44:37 10° NNE 05:49:40 48° E 05:54:44 10° S
PSLV R/B 3.8 05:45:59 10° NNE 05:50:18 70° E 05:53:50 15° S
ATLAS CENTAUR R/B 1.7 05:48:01 10° NNW 05:52:17 65° ENE 05:56:12 10° SSE
Meteor 1-10 Rocket 4.3 05:46:47 10° N 05:52:35 89° ENE 05:58:29 10° S
CZ-4B R/B 3.9 05:48:16 10° N 05:53:15 36° WNW 05:55:20 27° WSW
Cosmos 1782 2.7 05:52:00 10° N 05:55:58 88° E 05:59:56 10° S
Delta 7925 Rocket 4.5 05:49:33 11° WNW 05:56:33 82° SSW 06:05:54 10° ESE
CZ-4B R/B 3.8 05:52:49 10° NNW 05:56:38 33° WNW 05:57:43 29° WSW
Cosmos 1238 Rocket 3.8 05:50:27 10° N 05:56:43 83° E 06:01:55 10° S
Cosmos 1606 4.1 05:53:28 10° NNE 05:57:01 38° E 06:00:34 10° SSE
Cosmos 372 Rocket 3.9 05:53:34 18° SSW 05:57:29 87° WNW 06:02:43 10° NNE
CZ-3C R/B 0.8 05:56:32 38° W 05:57:33 81° N 06:05:50 10° E
Cosmos 2333 4.3 05:53:30 10° NNW 05:59:11 83° ENE 06:04:55 10° SSE
Cosmos 1408 2.5 05:56:58 18° S 05:59:32 87° E 06:03:12 10° N
Cosmos 1862 3.2 05:57:31 25° SSW 05:59:44 64° W 06:03:41 10° N
Cosmos 2218 Rocket 3.9 05:55:01 10° S 06:01:05 72° W 06:07:12 10° N
Cosmos 1340 Rocket 4.2 06:03:50 20° W 06:03:52 20° W 06:06:54 10° NNW
Cosmos 2297 Rocket 2.6 06:02:52 22° SW 06:06:11 45° WNW 06:11:35 10° N
Cosmos 864 Rocket 4.5 06:00:33 10° S 06:06:52 82° W 06:13:11 10° N
Meteor 1-31 Rocket 4.0 06:03:36 10° NNE 06:07:15 41° E 06:10:55 10° S
Cosmos 1356 Rocket 4.4 06:06:19 25° WSW 06:07:23 28° W 06:10:55 10° NNW
Okean-O 2.9 06:03:12 10° N 06:07:27 47° WNW 06:10:28 18° SW
MOZ.5/SAFIR/RUBIN 5/SL-8 3.8 06:06:48 10° S 06:11:20 54° W 06:15:56 10° NNW
Ariane Rocket 4.1 06:07:28 10° NNE 06:12:20 45° ESE 06:17:11 10° S
Cosmos 1375 Rocket 4.5 06:05:56 10° NNW 06:12:27 76° WSW 06:18:51 10° SSE
Cosmos 1825 2.3 06:10:02 16° SSW 06:12:52 53° W 06:16:35 10° N
ARGOS Delta rocket 4.2 06:08:56 10° NNE 06:13:50 72° E 06:19:01 10° S
Cosmos 1782 Rocket 3.9 06:14:48 13° SSW 06:18:29 44° W 06:22:38 10° NNW
Thor Agena Rocket 4.2 06:18:26 10° SSW 06:23:12 34° W 06:27:58 10° NW
GPS 2-14 Rocket1 3.7 06:22:06 17° WSW 06:24:23 28° SSW 06:27:54 10° SE
Cosmos 2333 Rocket 2.9 06:19:04 10° N 06:24:42 59° ENE 06:30:20 10° SSE
NOAA 6 4.3 06:20:04 10° NNE 06:25:15 72° ESE 06:30:23 10° S
BREEZE-M DEB (TANK) 3.5 06:22:09 10° SSW 06:25:25 27° SE 06:27:48 10° ENE
Okean 2 Rocket 3.5 06:23:21 10° SSW 06:27:32 41° W 06:31:46 10° NNW
Cosmos 1980 4.3 06:22:47 10° N 06:28:21 62° ENE 06:33:55 10° SSE
COSMOS 2428 3.5 06:30:10 10° NW 06:34:59 29° WSW 06:39:48 10° SSW
Iridium 4 Rocket 3.9 06:33:37 10° NNW 06:37:09 28° W 06:40:45 10° SW
ATLAS 2AS CENTAUR R/B 3.2 06:33:33 10° SW 06:40:22 53° WNW 06:47:52 10° NNE
Cosmos 2227 4.4 06:36:32 10° SSW 06:42:08 78° ESE 06:47:43 10° NNE
SWIFT 3.2 06:39:49 10° SW 06:43:46 38° SSE 06:47:41 10° E
ISS -1.7 06:46:34 10° W 06:48:42 16° SW 06:50:52 10° SSW
Cosmos 2237 Rocket 2.3 06:43:57 10° NNW 06:49:40 88° WSW 06:55:21 10° SSE
